SCP
0 0 0 0 0 0 0 0 0 0 0 0 0 0 -0 -0 -0 0 -0 0 -0 -0 -0 -0 -0 -0 -0 -0 0 0 0 0 0 0 0 0 0 0 0 0 0 0 0 0 0 0 0 0 0 0 0 0 0 0
0 0 0 0 0 0 0 0 0 0 0 0 0 -0 -0 -0 -0 -0 0 -0 -0 -0 0 -0 -0 -0 -0 0 0 -0 0 0 0 0 0 0 0 0 0 0 0 0 0 0 0 0 0 0 0 0 0 0 0 0
0 0 0 0 0 0 0 0 0 0 0 0 -0 0 -0 -0 -0 -0 0 0 -0 -0 0 0 -0 0 0 0 0 0 0 0 0 0 0 0 0 0 0 0 0 0 0 0 0 0 0 0 0 0 0 0 0 0
0 0 0 0 0 0 0 0 0 0 0 0 0 -0 -0 -0 -0 0 0 0 -0 -0 -0 -0 0 0 0 0 -0 -0 0 0 0 0 0 0 0 0 0 0 0 0 0 0 0 0 0 0 0 0 0 0 0 0
0 0 0 0 0 0 0 0 0 0 0 0 0 -0 -0 -0 -0 0 0 0 0 -0 0 0 -0 0 0 -0 -0 0 0 0 0 0 0 0 0 0 0 0 0 0 0 0 0 0 0 0 0 0 0 0 0 0
0 0 0 0 0 0 0 0 0 0 0 -0 -0 -0 -0 -0 0 -0 0 0 0 0 -0 0 0 0 -0 0 0 0 0 0 0 0 0 0 0 0 0 0 0 0 0 0 0 0 0 0 0 0 0 0 0 0
0 0 0 0 0 0 0 0 0 -0 -0 -0 -0 -0 -0 0 -0 0 0 0 0 0 0 0 0 -0 -0 0 0 0 0 0 0 0 0 0 0 0 0 0 0 0 0 0 0 -0 0 0 0 0 0 -0 0 0
0 0 0 0 0 0 0 0 0 -0 -0 -0 -0 -0 -0 0 0 0 0 0 0 0 0 0 0 0 -0 0 0 0 0 0 0 0 0 0 0 0 0 0 0 0 0 0 0 0 0 0 -0 -0 -0 -0 0 0
0 0 0 0 0 0 0 0 -0 -0 -0 -0 -0 -0 0 0 0 0 0 0 0 0 0 0 0 0 0 0 0 0 0 0 0 0 0 0 0 0 0 0 0 0 0 0 0 0 -0 -0 0 -0 0 -0 -0 0
0 -0 -0 0 0 0 0 -0 -0 -0 -0 -0 0 0 0 0 0 0 0 0 0 0 0 0 0 0 -0 0 0 0 0 0 0 0 0 0 0 0 0 0 0 0 0 0 -0 -0 0 0 0 0 0 0 0 0
-0 -0 -0 0 -0 -0 -0 -0 -0 -0 -0 0 0 0 0 0 0 0 0 0 0 0 -0 0 0 0 -0 0 0 0 -0 0 0 0 0 0 0 0 0 0 0 0 0 0 0 0 0 0 0 0 0 -0 0 0
-0 -0 0 -0 -0 -0 -0 -0 -0 -0 0 -0 0 0 0 0 0 0 0 0 0 0 0 0 0 0 0 0 0 0 0 0 0 -0 0 0 0 0 0 0 0 0 0 0 -0 0 0 0 0 0 0 0 0 -0
0 -0 -0 -0 -0 -0 -0 -0 -0 -0 -0 0 0 0 0 0 0 0 0 -0 -0 0 0 0 0 0 0 -0 -0 0 0 0 0 0 0 0 0 -0 0 0 0 0 0 0 -0 -0 0 -0 0 0 0 0 0 0
0 -0 -0 -0 -0 -0 -0 -0 -0 -0 0 0 0 0 0 0 0 0 0 0 0 -0 -0 -0 0 0 0 0 0 0 0 0 0 0 0 0 -0 -0 -0 0 0 0 0 0 0 0 -0 -0 -0 -0 -0 0 0 -0
-0 -0 -0 -0 -0 -0 -0 -0 -0 0 0 0 0 0 0 0 0 0 0 0 0 0 0 0 0 0 0 0 0 0 0 0 0 0 0 0 -0 -0 -0 -0 0 0 0 0 0 -0 -0 -0 -0 -0 -0 -0 -0 -0
-0 -0 0 -0 0 -0 -0 -0 0 -0 0 0 0 0 0 0 0 0 0 0 0 0 0 -0 -0 0 -0 -0 0 0 0 0 0 -0 0 0 0 -0 -0 -0 -0 0 0 -0 -0 -0 -0 -0 -0 -0 -0 -0 -0 -0
-0 0 -0 -0 -0 -0 -0 0 0 -0 0 0 0 0 0 0 0 0 0 0 0 0 0 0 -0 -0 0 -0 -0 0 0 0 0 0 0 0 0 -0 0 -0 -0 -0 -0 -0 -0 -0 -0 0 0 0 -0 -0 -0 -0
-0 -0 -0 -0 -0 -0 0 -0 0 -0 0 0 0 0 0 0 0 0 0 0 0 -0 -0 -0 0 0 -0 -0 -0 0 0 0 0 0 0 0 0 0 -0 -0 -0 -0 -0 -0 -0 -0 0 0 0 0 0 -0 -0 -0
-0 -0 -0 -0 -0 0 0 0 0 0 0 0 0 0 0 0 0 -0 0 -0 -0 0 0 0 0 0 -0 -0 -0 -0 0 0 0 0 0 0 0 0 0 -0 -0 0 0 -0 -0 0 0 0 0 0 0 -0 0 0
-0 -0 -0 -0 -0 0 0 0 0 0 0 0 0 0 0 0 0 0 -0 -0 -0 -0 0 0 0 0 -0 0 -0 -0 0 0 0 0 0 0 0 -0 0 0 0 0 0 0 -0 0 0 0 0 0 0 0 0 0
0 0 -0 0 -0 -0 0 0 0 0 0 0 0 0 0 0 -0 0 -0 -0 -0 -0 -0 -0 0 0 0 -0 -0 -0 -0 0 0 0 0 0 0 0 0 0 0 0 0 0 0 0 0 0 0 0 0 0 0 0
0 0 0 0 0 0 0 0 0 0 0 0 0 0 0 -0 -0 -0 -0 -0 -0 0 0 0 0 -0 0 -0 -0 0 -0 -0 0 -0 0 0 0 0 0 0 -0 0 0 0 0 -0 0 0 0 0 -0 0 -0 -0
0 0 0 0 0 0 0 0 0 0 0 0 0 0 0 0 -0 -0 -0 -0 -0 0 -0 0 0 0 0 -0 -0 -0 -0 0 0 0 -0 -0 -0 0 0 0 0 0 0 0 0 0 0 -0 0 -0 -0 -0 -0 0
0 0 0 0 0 0 0 0 0 0 0 0 0 0 0 0 0 0 0 -0 0 0 -0 0 0 0 0 0 -0 -0 0 -0 -0 -0 -0 0 -0 -0 0 0 0 0 0 0 0 -0 0 -0 -0 -0 -0 -0 -0 0
0 0 0 0 0 0 0 0 0 0 0 0 0 0 0 0 0 0 -0 0 0 0 0 0 0 0 0 0 -0 -0 0 0 -0 -0 0 0 0 0 0 0 0 0 0 -0 -0 -0 -0 -0 -0 -0 -0 0 0 0
0 0 0 0 0 0 0 0 0 0 0 0 0 0 -0 0 0 0 0 0 0 0 0 0 0 0 0 -0 0 0 -0 0 0 -0 -0 -0 -0 0 0 0 0 0 -0 -0 -0 -0 -0 -0 -0 -0 -0 0 0 0
0 0 0 0 0 0 0 0 0 0 0 0 0 0 0 0 0 0 0 0 -0 0 -0 0 0 0 0 0 -0 -0 0 -0 -0 -0 -0 -0 -0 -0 0 0 0 0 -0 -0 -0 -0 -0 -0 -0 -0 0 0 0 0
0 0 0 0 0 0 0 0 0 0 0 0 0 0 0 0 0 0 -0 0 0 0 -0 -0 0 -0 -0 0 -0 0 0 0 0 0 0 0 0 0 0 0 0 -0 0 0 -0 -0 -0 -0 -0 0 0 0 0 0
-0 0 0 -0 0 0 0 0 0 0 0 0 0 0 0 -0 -0 0 -0 0 0 -0 0 0 -0 -0 0 0 -0 0 0 0 -0 -0 -0 0 0 0 0 0 0 0 0 0 -0 0 0 0 0 0 0 0 0 0
-0 -0 0 0 0 0 -0 -0 -0 0 -0 -0 0 0 0 0 0 -0 0 0 0 0 0 0 -0 0 0 0 -0 -0 -0 0 -0 -0 -0 -0 0 0 0 0 0 0 0 0 0 -0 0 0 0 0 0 0 0 0
-0 0 0 0 0 0 -0 -0 -0 -0 0 0 0 0 0 -0 0 -0 -0 -0 0 0 0 0 -0 -0 0 -0 0 -0 -0 -0 -0 -0 -0 0 -0 -0 -0 0 0 0 0 -0 -0 0 0 0 0 0 0 0 0 0
-0 -0 -0 -0 0 0 0 0 0 0 0 0 0 0 0 0 0 0 0 0 0 0 0 0 0 0 -0 0 0 0 -0 -0 -0 0 -0 -0 -0 -0 -0 -0 -0 -0 -0 -0 0 0 0 0 0 0 0 0 0 0
-0 -0 -0 -0 0 0 0 0 0 0 0 0 0 0 0 0 0 0 0 0 0 0 0 0 0 0 0 0 0 0 0 0 0 0 0 -0 -0 -0 -0 0 0 0 0 0 0 0 0 0 0 0 0 0 0 0
Wind_Speed_500mb
54 55 55 54 55 57 59 60 54 50 53 51 50 49 49 43 41 40 44 31 29 14 50 42 29 42 38 23 8 18 12 2 4 5 5 7 3 3 7 17 25 16 11 11 4 6 9 15 13 2 22 28 36 45
54 54 52 53 55 51 49 51 54 56 56 55 52 52 51 45 45 38 44 34 38 31 48 52 46 42 32 29 25 15 19 17 11 5 7 4 12 8 12 9 14 5 10 4 8 10 25 33 42 39 43 39 35 37
51 51 50 51 50 49 55 58 59 59 58 57 55 52 46 47 44 34 35 34 27 19 38 22 14 22 12 11 14 9 13 31 29 25 13 7 8 9 5 5 12 5 14 8 18 17 26 41 46 48 47 43 41 32
50 51 52 52 50 54 59 63 59 59 57 54 50 45 47 36 33 25 23 31 28 15 8 7 23 15 11 20 19 24 27 28 29 26 11 7 8 10 8 7 10 4 9 10 28 27 28 42 49 47 41 39 36 32
49 49 49 49 53 58 65 64 58 57 55 49 46 43 36 27 26 27 26 29 25 17 7 20 28 15 18 18 19 14 12 15 17 9 5 7 9 16 8 3 7 8 12 8 8 31 29 33 43 44 39 36 34 35
49 47 47 50 56 62 59 58 57 54 51 45 43 35 28 27 29 22 7 6 6 23 10 7 7 18 24 14 8 10 9 8 9 6 6 8 12 12 6 3 20 23 28 24 19 34 46 44 36 35 41 37 35 35
48 46 46 51 56 56 55 56 56 53 44 37 37 37 28 23 20 10 10 16 10 9 8 9 4 17 17 17 12 13 7 6 9 7 7 8 9 6 5 3 8 19 30 32 32 51 43 43 46 47 47 40 36 35
47 44 45 49 53 52 55 57 52 46 38 35 37 27 26 30 13 9 7 9 7 5 8 4 0 5 13 10 8 10 7 4 7 6 6 4 2 4 3 6 10 15 23 35 37 40 50 52 47 44 39 37 35 34
47 43 45 47 49 49 52 48 44 39 38 36 31 17 8 5 5 7 5 2 2 5 6 7 4 4 8 7 7 5 3 4 3 1 2 3 5 3 4 12 10 11 16 45 40 40 56 53 43 40 35 33 33 31
45 41 42 44 45 45 48 43 39 37 31 23 16 7 6 6 9 6 3 2 3 4 5 4 6 3 4 5 5 5 1 5 0 4 5 2 6 10 2 11 15 17 18 29 58 52 46 42 43 37 32 30 29 27
41 40 40 41 40 43 40 38 42 32 23 19 14 8 11 3 3 4 5 5 8 4 5 1 3 3 5 3 3 3 4 4 2 5 3 4 6 7 22 16 13 27 17 39 47 52 43 42 38 32 33 32 29 27
39 38 36 35 36 38 34 34 34 28 23 20 15 11 7 5 8 6 5 5 7 4 3 1 2 2 3 4 5 2 4 5 2 8 4 4 7 12 20 29 28 34 34 38 46 45 40 36 34 34 31 32 30 28
36 36 33 31 31 32 33 32 25 30 26 7 8 6 6 4 6 5 4 5 4 6 5 6 5 4 3 6 4 5 4 4 2 3 4 7 10 21 37 34 32 35 38 41 43 42 40 37 35 36 35 30 29 27
35 34 32 28 23 30 30 26 29 28 12 6 7 8 6 6 9 6 7 8 8 13 9 5 2 3 3 3 4 5 5 6 5 5 6 7 14 34 39 34 34 28 36 44 43 41 39 41 38 35 32 28 27 27
35 34 27 16 22 29 29 30 23 16 6 5 6 5 4 11 15 17 11 12 10 6 4 2 4 4 2 2 4 6 5 6 4 7 6 23 22 32 42 44 44 41 37 40 40 43 41 40 37 34 29 27 27 27
37 19 7 24 32 28 29 25 12 7 4 4 5 6 9 9 8 9 6 9 2 1 5 4 1 2 2 3 3 4 5 5 6 5 7 12 24 30 37 40 42 39 37 39 40 40 39 36 33 31 29 27 26 25
26 12 33 38 23 23 18 9 5 5 6 5 4 11 12 16 18 9 11 4 3 2 3 3 1 3 3 4 6 4 3 4 13 8 4 15 30 42 42 39 37 38 39 40 40 37 37 34 32 29 29 26 25 23
26 31 33 25 23 21 10 3 4 6 5 7 8 10 13 14 13 13 3 3 3 6 5 3 6 3 4 3 3 5 10 9 8 3 9 21 28 30 34 34 36 35 36 36 36 37 34 32 29 26 27 26 24 22
30 27 16 9 16 14 6 4 4 6 6 7 11 16 15 14 15 9 5 5 3 5 7 4 5 0 1 5 6 11 5 7 12 19 32 39 44 37 38 38 39 39 38 38 36 32 30 26 24 24 22 23 18 18
20 11 7 7 10 6 6 4 5 6 8 11 18 10 13 9 6 7 9 6 7 5 4 3 5 4 11 1 9 9 12 21 40 40 33 29 30 33 36 36 38 38 34 33 30 30 27 23 21 18 19 20 16 15
13 9 7 7 6 5 6 7 6 7 12 11 11 21 14 8 8 4 5 7 5 5 3 4 5 6 7 9 8 7 21 41 38 36 38 35 32 34 33 34 33 31 31 31 28 28 24 23 23 15 17 17 17 13
10 15 12 4 5 4 7 9 10 12 8 13 13 12 7 5 5 3 4 6 5 7 9 11 7 4 10 16 10 16 32 48 34 31 33 35 35 32 33 30 32 29 27 25 26 24 25 21 18 22 19 17 14 15
7 6 5 4 5 5 11 9 7 4 5 5 6 5 5 6 3 4 1 5 5 5 9 8 7 5 17 27 27 41 30 29 32 32 34 31 29 27 28 27 26 27 26 23 22 21 22 22 21 20 18 18 13 12
7 3 4 4 6 7 8 5 6 6 6 6 5 6 2 3 4 4 4 4 5 5 7 5 5 18 24 24 23 34 26 17 24 26 25 27 27 27 25 25 23 21 21 23 21 21 22 22 22 19 19 15 13 11
3 4 6 9 9 7 6 5 8 6 5 8 7 5 0 2 4 2 3 5 12 12 9 8 12 13 15 19 22 29 27 22 27 23 21 24 27 27 25 24 23 21 21 23 23 21 25 22 21 18 16 13 12 11
5 6 7 6 4 6 3 5 2 4 9 7 5 2 4 3 5 1 5 11 9 11 11 2 14 13 6 19 30 29 30 29 28 25 23 25 26 29 29 28 26 21 20 20 22 24 23 22 21 20 16 15 17 11
5 6 8 11 11 12 6 5 6 6 6 6 6 7 4 2 5 7 8 10 8 8 8 7 4 17 15 11 18 19 23 24 25 24 24 22 26 25 26 26 24 21 20 20 21 21 21 22 20 19 14 12 12 10
7 7 7 11 13 10 7 4 4 3 6 8 13 2 3 3 6 5 6 5 3 3 2 3 0 12 30 13 16 20 19 19 21 23 22 24 25 23 22 24 26 25 20 20 20 20 20 20 20 19 16 13 10 9
8 9 9 17 9 8 7 4 3 6 7 4 6 5 3 2 2 10 10 8 5 2 4 4 3 16 17 10 19 19 18 23 28 32 31 28 24 21 15 21 30 24 25 31 26 20 20 19 19 18 16 13 11 8
8 6 8 15 8 6 8 11 12 10 8 10 10 13 13 13 13 14 15 13 9 9 10 7 13 13 24 22 21 19 20 23 27 31 29 25 24 22 20 20 24 25 23 27 36 29 28 25 26 23 16 13 11 11
10 6 9 16 22 16 9 10 13 11 7 8 10 15 17 21 19 8 9 11 5 5 3 2 22 13 19 23 26 25 25 25 26 27 24 18 30 31 24 27 27 27 26 25 22 22 24 22 21 18 17 14 13 9
10 14 22 20 21 16 16 13 11 13 15 16 13 13 10 11 10 14 10 9 7 4 2 0 9 21 13 15 19 23 24 25 27 25 20 23 29 28 31 27 26 26 27 26 23 23 24 22 21 19 17 15 13 9
16 19 20 20 10 6 4 5 5 4 3 3 3 6 7 5 2 3 6 4 6 3 1 2 3 2 7 29 11 8 24 29 33 31 29 33 32 32 26 27 31 30 29 27 24 24 24 23 24 21 21 21 15 16
Wind_Direction_500mb
328 328 330 330 330 329 327 326 328 327 326 325 325 324 321 319 322 321 304 320 298 274 291 286 292 320 323 335 333 317 331 269 236 297 335 81 273 22 144 133 167 162 149 149 183 116 124 359 115 68 106 102 89 89
328 331 331 330 330 333 333 331 327 324 324 324 324 322 322 317 317 311 301 307 312 283 274 298 290 291 292 289 301 302 295 305 345 326 343 35 37 69 104 100 132 121 124 126 126 99 96 79 95 93 104 101 104 98
329 330 330 329 328 328 328 327 326 326 324 321 320 322 321 317 314 304 288 301 326 286 297 276 312 323 304 301 285 297 329 351 337 324 305 340 37 43 56 68 99 103 105 140 90 94 106 105 102 99 102 100 97 103
328 331 329 328 327 328 327 325 323 326 324 324 325 323 319 317 319 308 284 289 292 284 280 312 327 319 288 317 298 273 287 315 312 310 344 11 13 4 58 90 103 102 102 99 105 120 91 119 121 115 109 107 110 110
325 323 325 324 327 328 327 327 321 321 325 327 324 323 320 316 323 321 299 290 273 253 284 293 305 3 332 325 322 295 280 311 326 321 343 42 16 355 71 278 140 122 119 137 149 145 130 112 107 116 117 116 115 115
323 324 325 324 327 328 332 331 326 320 321 322 325 334 333 317 326 333 311 43 242 213 287 303 10 7 26 31 18 8 358 334 327 6 6 53 13 350 340 79 93 112 91 84 116 125 133 129 128 129 125 120 117 114
322 323 326 326 329 333 337 337 330 325 322 319 321 319 320 326 324 295 291 320 321 250 262 286 39 357 1 0 0 2 15 3 38 350 43 47 29 329 278 127 24 60 110 99 126 134 130 134 126 121 117 117 118 115
320 322 324 328 330 334 337 336 332 330 327 317 319 318 312 307 321 347 328 308 293 301 279 283 286 17 13 339 334 1 359 99 66 354 60 43 237 219 269 106 82 44 109 122 130 139 133 128 125 120 124 129 123 121
319 321 323 330 333 340 339 337 337 334 331 332 325 325 349 18 316 288 342 265 342 259 298 279 24 33 6 312 305 302 336 21 61 99 156 266 239 228 86 212 123 142 152 127 128 129 133 131 131 134 138 137 130 127
319 321 324 331 339 340 342 344 348 341 333 344 353 0 348 325 306 82 13 304 272 229 257 290 38 67 144 249 265 245 220 340 231 109 112 125 264 127 115 93 180 105 124 138 136 132 132 141 140 148 141 138 135 135
319 320 324 329 333 337 346 350 349 355 8 0 348 337 343 5 282 252 233 229 210 211 222 288 113 11 222 282 319 279 232 269 248 176 224 218 213 176 159 138 133 118 125 135 131 137 147 140 145 146 133 129 132 133
317 318 322 325 332 347 344 350 349 358 342 323 316 311 314 282 243 259 221 171 232 184 183 304 150 250 278 268 272 322 256 251 274 180 207 218 125 166 169 140 130 134 132 133 147 145 138 136 135 127 128 130 126 124
316 317 317 318 329 337 346 344 340 336 344 345 326 283 251 256 264 254 222 151 109 137 146 186 207 276 236 242 256 269 291 294 240 232 221 58 161 157 132 139 138 125 131 139 130 130 130 128 128 130 128 128 128 127
317 317 315 306 315 336 340 334 337 341 340 333 327 299 288 329 12 15 356 348 21 104 136 173 117 256 340 18 3 267 277 294 267 208 67 132 161 113 124 132 131 127 128 132 129 130 130 128 128 129 128 128 128 128
319 320 306 298 308 327 327 329 316 324 300 299 305 296 320 351 300 308 332 343 75 101 108 117 16 51 51 350 314 314 262 267 354 47 304 23 103 109 128 128 127 130 138 129 131 130 128 130 128 125 125 125 126 127
324 333 313 306 300 313 322 326 319 322 279 271 269 281 289 283 330 318 283 288 87 262 327 265 70 251 192 260 245 239 276 14 26 79 48 40 108 122 124 122 130 132 132 131 130 132 130 132 130 128 125 124 124 123
331 308 316 322 326 323 319 334 310 259 262 260 255 273 279 276 265 277 286 304 169 300 342 334 284 267 319 230 212 221 333 82 355 27 352 172 136 123 121 133 134 134 131 129 130 131 132 131 133 130 126 126 124 122
311 308 312 319 337 354 335 317 278 263 259 258 268 266 243 240 293 304 244 163 258 281 324 319 312 328 226 242 305 360 8 53 42 29 154 148 155 145 149 143 133 137 138 139 140 135 137 139 136 133 132 133 127 124
310 318 333 328 343 336 303 278 278 290 274 252 255 261 258 273 262 262 205 210 265 281 304 280 245 251 314 244 279 298 215 141 142 139 123 116 123 126 136 142 143 142 142 139 138 143 145 145 141 142 144 146 135 135
314 311 318 300 316 303 281 281 276 276 290 308 299 270 273 257 277 233 226 233 246 283 263 248 34 359 336 324 291 338 136 146 146 133 127 130 139 140 137 135 135 138 141 144 144 144 146 143 145 151 155 141 137 138
353 339 324 327 288 241 282 298 266 257 291 279 291 303 282 268 269 225 276 286 273 265 350 33 63 57 89 81 149 182 152 158 141 139 137 134 135 134 144 142 146 150 154 154 154 150 154 151 145 141 133 135 132 131
321 338 339 325 276 270 263 243 268 296 274 278 295 262 270 273 268 239 213 261 266 8 3 42 70 74 116 134 108 132 145 143 137 138 139 140 145 153 154 157 160 158 160 159 157 163 149 145 147 145 137 131 131 129
308 321 318 291 292 262 270 248 264 247 260 274 278 256 251 300 292 280 214 289 16 32 57 50 14 92 128 123 122 129 141 154 155 159 162 161 153 153 157 160 160 158 158 149 153 148 149 155 152 150 147 144 143 140
318 293 270 277 237 269 298 251 256 273 281 268 245 279 236 263 305 273 292 112 356 336 32 92 94 128 146 137 134 162 158 152 154 150 155 157 162 160 155 152 148 149 155 157 155 150 152 159 159 151 156 157 149 144
310 237 217 257 246 235 254 222 209 223 255 278 283 260 41 37 274 276 271 65 21 26 27 154 165 172 173 157 150 164 167 167 164 163 165 166 155 149 153 157 155 155 158 159 159 161 160 163 162 164 166 168 168 166
264 224 199 261 221 256 299 307 220 263 296 286 257 235 207 190 248 237 62 23 25 10 342 169 176 183 203 183 162 162 172 175 170 171 173 168 167 167 164 161 158 157 165 168 168 166 169 165 169 171 175 172 174 165
267 263 234 260 279 286 274 265 293 290 260 294 352 338 347 281 12 47 27 26 21 29 46 115 81 171 183 164 176 175 169 179 190 176 162 163 167 171 173 175 174 170 168 169 170 174 173 173 175 174 175 173 185 182
272 301 286 301 286 288 281 261 298 320 299 325 313 350 55 326 8 349 355 45 346 47 37 96 37 189 176 163 176 168 169 165 157 151 156 162 165 168 184 193 182 169 169 172 172 174 177 178 178 178 180 180 180 189
259 258 278 277 268 266 260 244 249 229 234 281 346 355 24 220 265 331 317 272 233 177 244 258 163 170 151 168 157 163 170 167 169 170 166 158 160 153 137 142 146 156 172 183 173 171 175 176 178 177 176 176 179 179
272 211 250 262 238 245 218 214 226 253 252 245 246 272 304 319 306 319 309 305 273 276 273 223 203 181 185 183 178 172 173 173 175 175 176 179 184 179 177 169 168 172 182 185 193 188 187 185 181 172 161 168 175 174
270 273 260 262 282 301 297 292 288 274 272 287 289 285 298 305 307 331 1 6 329 339 265 139 185 203 195 198 189 178 182 182 182 185 192 201 185 190 182 170 173 178 172 168 171 171 176 175 174 176 177 180 194 182
260 248 257 290 301 305 306 304 315 294 288 289 297 282 291 315 326 323 353 2 322 331 263 168 179 207 188 195 208 207 204 198 195 197 197 189 177 174 166 174 176 176 174 177 174 174 176 171 176 181 178 185 197 182
239 258 264 276 284 287 322 292 266 234 269 275 335 346 357 17 315 325 11 3 49 38 74 89 70 296 238 204 212 216 211 216 209 200 192 184 183 165 167 174 186 182 178 175 175 181 176 181 184 183 185 188 187 195
Wind_Speed_850mb
54 55 55 54 55 57 59 60 54 50 53 51 50 49 49 43 41 40 44 31 29 14 50 42 29 42 38 23 8 18 12 2 4 5 5 7 3 3 7 17 25 16 11 11 4 6 9 15 13 2 22 28 36 45
54 54 52 53 55 51 49 51 54 56 56 55 52 52 51 45 45 38 44 34 38 31 48 52 46 42 32 29 25 15 19 17 11 5 7 4 12 8 12 9 14 5 10 4 8 10 25 33 42 39 43 39 35 37
51 51 50 51 50 49 55 58 59 59 58 57 55 52 46 47 44 34 35 34 27 19 38 22 14 22 12 11 14 9 13 31 29 25 13 7 8 9 5 5 12 5 14 8 18 17 26 41 46 48 47 43 41 32
50 51 52 52 50 54 59 63 59 59 57 54 50 45 47 36 33 25 23 31 28 15 8 7 23 15 11 20 19 24 27 28 29 26 11 7 8 10 8 7 10 4 9 10 28 27 28 42 49 47 41 39 36 32
49 49 49 49 53 58 65 64 58 57 55 49 46 43 36 27 26 27 26 29 25 17 7 20 28 15 18 18 19 14 12 15 17 9 5 7 9 16 8 3 7 8 12 8 8 31 29 33 43 44 39 36 34 35
49 47 47 50 56 62 59 58 57 54 51 45 43 35 28 27 29 22 7 6 6 23 10 7 7 18 24 14 8 10 9 8 9 6 6 8 12 12 6 3 20 23 28 24 19 34 46 44 36 35 41 37 35 35
48 46 46 51 56 56 55 56 56 53 44 37 37 37 28 23 20 10 10 16 10 9 8 9 4 17 17 17 12 13 7 6 9 7 7 8 9 6 5 3 8 19 30 32 32 51 43 43 46 47 47 40 36 35
47 44 45 49 53 52 55 57 52 46 38 35 37 27 26 30 13 9 7 9 7 5 8 4 0 5 13 10 8 10 7 4 7 6 6 4 2 4 3 6 10 15 23 35 37 40 50 52 47 44 39 37 35 34
47 43 45 47 49 49 52 48 44 39 38 36 31 17 8 5 5 7 5 2 2 5 6 7 4 4 8 7 7 5 3 4 3 1 2 3 5 3 4 12 10 11 16 45 40 40 56 53 43 40 35 33 33 31
45 41 42 44 45 45 48 43 39 37 31 23 16 7 6 6 9 6 3 2 3 4 5 4 6 3 4 5 5 5 1 5 0 4 5 2 6 10 2 11 15 17 18 29 58 52 46 42 43 37 32 30 29 27
41 40 40 41 40 43 40 38 42 32 23 19 14 8 11 3 3 4 5 5 8 4 5 1 3 3 5 3 3 3 4 4 2 5 3 4 6 7 22 16 13 27 17 39 47 52 43 42 38 32 33 32 29 27
39 38 36 35 36 38 34 34 34 28 23 20 15 11 7 5 8 6 5 5 7 4 3 1 2 2 3 4 5 2 4 5 2 8 4 4 7 12 20 29 28 34 34 38 46 45 40 36 34 34 31 32 30 28
36 36 33 31 31 32 33 32 25 30 26 7 8 6 6 4 6 5 4 5 4 6 5 6 5 4 3 6 4 5 4 4 2 3 4 7 10 21 37 34 32 35 38 41 43 42 40 37 35 36 35 30 29 27
35 34 32 28 23 30 30 26 29 28 12 6 7 8 6 6 9 6 7 8 8 13 9 5 2 3 3 3 4 5 5 6 5 5 6 7 14 34 39 34 34 28 36 44 43 41 39 41 38 35 32 28 27 27
35 34 27 16 22 29 29 30 23 16 6 5 6 5 4 11 15 17 11 12 10 6 4 2 4 4 2 2 4 6 5 6 4 7 6 23 22 32 42 44 44 41 37 40 40 43 41 40 37 34 29 27 27 27
37 19 7 24 32 28 29 25 12 7 4 4 5 6 9 9 8 9 6 9 2 1 5 4 1 2 2 3 3 4 5 5 6 5 7 12 24 30 37 40 42 39 37 39 40 40 39 36 33 31 29 27 26 25
26 12 33 38 23 23 18 9 5 5 6 5 4 11 12 16 18 9 11 4 3 2 3 3 1 3 3 4 6 4 3 4 13 8 4 15 30 42 42 39 37 38 39 40 40 37 37 34 32 29 29 26 25 23
26 31 33 25 23 21 10 3 4 6 5 7 8 10 13 14 13 13 3 3 3 6 5 3 6 3 4 3 3 5 10 9 8 3 9 21 28 30 34 34 36 35 36 36 36 37 34 32 29 26 27 26 24 22
30 27 16 9 16 14 6 4 4 6 6 7 11 16 15 14 15 9 5 5 3 5 7 4 5 0 1 5 6 11 5 7 12 19 32 39 44 37 38 38 39 39 38 38 36 32 30 26 24 24 22 23 18 18
20 11 7 7 10 6 6 4 5 6 8 11 18 10 13 9 6 7 9 6 7 5 4 3 5 4 11 1 9 9 12 21 40 40 33 29 30 33 36 36 38 38 34 33 30 30 27 23 21 18 19 20 16 15
13 9 7 7 6 5 6 7 6 7 12 11 11 21 14 8 8 4 5 7 5 5 3 4 5 6 7 9 8 7 21 41 38 36 38 35 32 34 33 34 33 31 31 31 28 28 24 23 23 15 17 17 17 13
10 15 12 4 5 4 7 9 10 12 8 13 13 12 7 5 5 3 4 6 5 7 9 11 7 4 10 16 10 16 32 48 34 31 33 35 35 32 33 30 32 29 27 25 26 24 25 21 18 22 19 17 14 15
7 6 5 4 5 5 11 9 7 4 5 5 6 5 5 6 3 4 1 5 5 5 9 8 7 5 17 27 27 41 30 29 32 32 34 31 29 27 28 27 26 27 26 23 22 21 22 22 21 20 18 18 13 12
7 3 4 4 6 7 8 5 6 6 6 6 5 6 2 3 4 4 4 4 5 5 7 5 5 18 24 24 23 34 26 17 24 26 25 27 27 27 25 25 23 21 21 23 21 21 22 22 22 19 19 15 13 11
3 4 6 9 9 7 6 5 8 6 5 8 7 5 0 2 4 2 3 5 12 12 9 8 12 13 15 19 22 29 27 22 27 23 21 24 27 27 25 24 23 21 21 23 23 21 25 22 21 18 16 13 12 11
5 6 7 6 4 6 3 5 2 4 9 7 5 2 4 3 5 1 5 11 9 11 11 2 14 13 6 19 30 29 30 29 28 25 23 25 26 29 29 28 26 21 20 20 22 24 23 22 21 20 16 15 17 11
5 6 8 11 11 12 6 5 6 6 6 6 6 7 4 2 5 7 8 10 8 8 8 7 4 17 15 11 18 19 23 24 25 24 24 22 26 25 26 26 24 21 20 20 21 21 21 22 20 19 14 12 12 10
7 7 7 11 13 10 7 4 4 3 6 8 13 2 3 3 6 5 6 5 3 3 2 3 0 12 30 13 16 20 19 19 21 23 22 24 25 23 22 24 26 25 20 20 20 20 20 20 20 19 16 13 10 9
8 9 9 17 9 8 7 4 3 6 7 4 6 5 3 2 2 10 10 8 5 2 4 4 3 16 17 10 19 19 18 23 28 32 31 28 24 21 15 21 30 24 25 31 26 20 20 19 19 18 16 13 11 8
8 6 8 15 8 6 8 11 12 10 8 10 10 13 13 13 13 14 15 13 9 9 10 7 13 13 24 22 21 19 20 23 27 31 29 25 24 22 20 20 24 25 23 27 36 29 28 25 26 23 16 13 11 11
10 6 9 16 22 16 9 10 13 11 7 8 10 15 17 21 19 8 9 11 5 5 3 2 22 13 19 23 26 25 25 25 26 27 24 18 30 31 24 27 27 27 26 25 22 22 24 22 21 18 17 14 13 9
10 14 22 20 21 16 16 13 11 13 15 16 13 13 10 11 10 14 10 9 7 4 2 0 9 21 13 15 19 23 24 25 27 25 20 23 29 28 31 27 26 26 27 26 23 23 24 22 21 19 17 15 13 9
16 19 20 20 10 6 4 5 5 4 3 3 3 6 7 5 2 3 6 4 6 3 1 2 3 2 7 29 11 8 24 29 33 31 29 33 32 32 26 27 31 30 29 27 24 24 24 23 24 21 21 21 15 16
Wind_Direction_850mb
328 328 330 330 330 329 327 326 328 327 326 325 325 324 321 319 322 321 304 320 298 274 291 286 292 320 323 335 333 317 331 269 236 297 335 81 273 22 144 133 167 162 149 149 183 116 124 359 115 68 106 102 89 89
328 331 331 330 330 333 333 331 327 324 324 324 324 322 322 317 317 311 301 307 312 283 274 298 290 291 292 289 301 302 295 305 345 326 343 35 37 69 104 100 132 121 124 126 126 99 96 79 95 93 104 101 104 98
329 330 330 329 328 328 328 327 326 326 324 321 320 322 321 317 314 304 288 301 326 286 297 276 312 323 304 301 285 297 329 351 337 324 305 340 37 43 56 68 99 103 105 140 90 94 106 105 102 99 102 100 97 103
328 331 329 328 327 328 327 325 323 326 324 324 325 323 319 317 319 308 284 289 292 284 280 312 327 319 288 317 298 273 287 315 312 310 344 11 13 4 58 90 103 102 102 99 105 120 91 119 121 115 109 107 110 110
325 323 325 324 327 328 327 327 321 321 325 327 324 323 320 316 323 321 299 290 273 253 284 293 305 3 332 325 322 295 280 311 326 321 343 42 16 355 71 278 140 122 119 137 149 145 130 112 107 116 117 116 115 115
323 324 325 324 327 328 332 331 326 320 321 322 325 334 333 317 326 333 311 43 242 213 287 303 10 7 26 31 18 8 358 334 327 6 6 53 13 350 340 79 93 112 91 84 116 125 133 129 128 129 125 120 117 114
322 323 326 326 329 333 337 337 330 325 322 319 321 319 320 326 324 295 291 320 321 250 262 286 39 357 1 0 0 2 15 3 38 350 43 47 29 329 278 127 24 60 110 99 126 134 130 134 126 121 117 117 118 115
320 322 324 328 330 334 337 336 332 330 327 317 319 318 312 307 321 347 328 308 293 301 279 283 286 17 13 339 334 1 359 99 66 354 60 43 237 219 269 106 82 44 109 122 130 139 133 128 125 120 124 129 123 121
319 321 323 330 333 340 339 337 337 334 331 332 325 325 349 18 316 288 342 265 342 259 298 279 24 33 6 312 305 302 336 21 61 99 156 266 239 228 86 212 123 142 152 127 128 129 133 131 131 134 138 137 130 127
319 321 324 331 339 340 342 344 348 341 333 344 353 0 348 325 306 82 13 304 272 229 257 290 38 67 144 249 265 245 220 340 231 109 112 125 264 127 115 93 180 105 124 138 136 132 132 141 140 148 141 138 135 135
319 320 324 329 333 337 346 350 349 355 8 0 348 337 343 5 282 252 233 229 210 211 222 288 113 11 222 282 319 279 232 269 248 176 224 218 213 176 159 138 133 118 125 135 131 137 147 140 145 146 133 129 132 133
317 318 322 325 332 347 344 350 349 358 342 323 316 311 314 282 243 259 221 171 232 184 183 304 150 250 278 268 272 322 256 251 274 180 207 218 125 166 169 140 130 134 132 133 147 145 138 136 135 127 128 130 126 124
316 317 317 318 329 337 346 344 340 336 344 345 326 283 251 256 264 254 222 151 109 137 146 186 207 276 236 242 256 269 291 294 240 232 221 58 161 157 132 139 138 125 131 139 130 130 130 128 128 130 128 128 128 127
317 317 315 306 315 336 340 334 337 341 340 333 327 299 288 329 12 15 356 348 21 104 136 173 117 256 340 18 3 267 277 294 267 208 67 132 161 113 124 132 131 127 128 132 129 130 130 128 128 129 128 128 128 128
319 320 306 298 308 327 327 329 316 324 300 299 305 296 320 351 300 308 332 343 75 101 108 117 16 51 51 350 314 314 262 267 354 47 304 23 103 109 128 128 127 130 138 129 131 130 128 130 128 125 125 125 126 127
324 333 313 306 300 313 322 326 319 322 279 271 269 281 289 283 330 318 283 288 87 262 327 265 70 251 192 260 245 239 276 14 26 79 48 40 108 122 124 122 130 132 132 131 130 132 130 132 130 128 125 124 124 123
331 308 316 322 326 323 319 334 310 259 262 260 255 273 279 276 265 277 286 304 169 300 342 334 284 267 319 230 212 221 333 82 355 27 352 172 136 123 121 133 134 134 131 129 130 131 132 131 133 130 126 126 124 122
311 308 312 319 337 354 335 317 278 263 259 258 268 266 243 240 293 304 244 163 258 281 324 319 312 328 226 242 305 360 8 53 42 29 154 148 155 145 149 143 133 137 138 139 140 135 137 139 136 133 132 133 127 124
310 318 333 328 343 336 303 278 278 290 274 252 255 261 258 273 262 262 205 210 265 281 304 280 245 251 314 244 279 298 215 141 142 139 123 116 123 126 136 142 143 142 142 139 138 143 145 145 141 142 144 146 135 135
314 311 318 300 316 303 281 281 276 276 290 308 299 270 273 257 277 233 226 233 246 283 263 248 34 359 336 324 291 338 136 146 146 133 127 130 139 140 137 135 135 138 141 144 144 144 146 143 145 151 155 141 137 138
353 339 324 327 288 241 282 298 266 257 291 279 291 303 282 268 269 225 276 286 273 265 350 33 63 57 89 81 149 182 152 158 141 139 137 134 135 134 144 142 146 150 154 154 154 150 154 151 145 141 133 135 132 131
321 338 339 325 276 270 263 243 268 296 274 278 295 262 270 273 268 239 213 261 266 8 3 42 70 74 116 134 108 132 145 143 137 138 139 140 145 153 154 157 160 158 160 159 157 163 149 145 147 145 137 131 131 129
308 321 318 291 292 262 270 248 264 247 260 274 278 256 251 300 292 280 214 289 16 32 57 50 14 92 128 123 122 129 141 154 155 159 162 161 153 153 157 160 160 158 158 149 153 148 149 155 152 150 147 144 143 140
318 293 270 277 237 269 298 251 256 273 281 268 245 279 236 263 305 273 292 112 356 336 32 92 94 128 146 137 134 162 158 152 154 150 155 157 162 160 155 152 148 149 155 157 155 150 152 159 159 151 156 157 149 144
310 237 217 257 246 235 254 222 209 223 255 278 283 260 41 37 274 276 271 65 21 26 27 154 165 172 173 157 150 164 167 167 164 163 165 166 155 149 153 157 155 155 158 159 159 161 160 163 162 164 166 168 168 166
264 224 199 261 221 256 299 307 220 263 296 286 257 235 207 190 248 237 62 23 25 10 342 169 176 183 203 183 162 162 172 175 170 171 173 168 167 167 164 161 158 157 165 168 168 166 169 165 169 171 175 172 174 165
267 263 234 260 279 286 274 265 293 290 260 294 352 338 347 281 12 47 27 26 21 29 46 115 81 171 183 164 176 175 169 179 190 176 162 163 167 171 173 175 174 170 168 169 170 174 173 173 175 174 175 173 185 182
272 301 286 301 286 288 281 261 298 320 299 325 313 350 55 326 8 349 355 45 346 47 37 96 37 189 176 163 176 168 169 165 157 151 156 162 165 168 184 193 182 169 169 172 172 174 177 178 178 178 180 180 180 189
259 258 278 277 268 266 260 244 249 229 234 281 346 355 24 220 265 331 317 272 233 177 244 258 163 170 151 168 157 163 170 167 169 170 166 158 160 153 137 142 146 156 172 183 173 171 175 176 178 177 176 176 179 179
272 211 250 262 238 245 218 214 226 253 252 245 246 272 304 319 306 319 309 305 273 276 273 223 203 181 185 183 178 172 173 173 175 175 176 179 184 179 177 169 168 172 182 185 193 188 187 185 181 172 161 168 175 174
270 273 260 262 282 301 297 292 288 274 272 287 289 285 298 305 307 331 1 6 329 339 265 139 185 203 195 198 189 178 182 182 182 185 192 201 185 190 182 170 173 178 172 168 171 171 176 175 174 176 177 180 194 182
260 248 257 290 301 305 306 304 315 294 288 289 297 282 291 315 326 323 353 2 322 331 263 168 179 207 188 195 208 207 204 198 195 197 197 189 177 174 166 174 176 176 174 177 174 174 176 171 176 181 178 185 197 182
239 258 264 276 284 287 322 292 266 234 269 275 335 346 357 17 315 325 11 3 49 38 74 89 70 296 238 204 212 216 211 216 209 200 192 184 183 165 167 174 186 182 178 175 175 181 176 181 184 183 185 188 187 195